This is the latest recevied weather packets stored in our database for station/object DG1ROH. If no packets are shown the sender has not sent any weather packets the latest 10 day(s).
| Time | Temp. | Humidity | Pressure | Rain* | Wind** | Luminosity | Snow |
|---|---|---|---|---|---|---|---|
| 1777134103 | 14.44° C | 55% | 1010.9 hPa | 0 mm | - | 54 W/m² | - |
| 1777133983 | 14.44° C | 56% | 1010.9 hPa | 0 mm | - | 107 W/m² | - |
| 1777133863 | 14.44° C | 55% | 1010.8 hPa | 0 mm | - | 148 W/m² | - |
| 1777133742 | 14.44° C | 55% | 1010.9 hPa | 0 mm | - | 116 W/m² | - |
| 1777133624 | 14.44° C | 54% | 1010.8 hPa | 0 mm | - | 123 W/m² | - |
| 1777133502 | 15° C | 54% | 1010.8 hPa | 0 mm | - | 93 W/m² | - |
| 1777133380 | 15° C | 55% | 1010.8 hPa | 0 mm | - | 151 W/m² | - |
| 1777133260 | 15° C | 54% | 1010.8 hPa | 0 mm | - | 137 W/m² | - |
| 1777133139 | 15° C | 55% | 1010.9 hPa | 0 mm | - | 100 W/m² | - |
| 1777133020 | 15° C | 54% | 1010.9 hPa | 0 mm | - | 137 W/m² | - |
| 1777132913 | 15° C | 53% | 1011 hPa | 0 mm | - | 107 W/m² | - |
| 1777132899 | 15° C | 53% | 1010.9 hPa | 0 mm | - | 151 W/m² | - |
| 1777132660 | 15° C | 54% | 1011 hPa | 0 mm | - | 142 W/m² | - |
| 1777132540 | 15° C | 53% | 1011.1 hPa | 0 mm | - | 206 W/m² | - |
| 1777132420 | 15° C | 52% | 1011.2 hPa | 0 mm | - | 165 W/m² | - |
| 1777132300 | 15.56° C | 53% | 1011.1 hPa | 0 mm | - | 185 W/m² | - |
| 1777132180 | 15.56° C | 54% | 1011.2 hPa | 0 mm | - | 113 W/m² | - |
| 1777132059 | 15.56° C | 54% | 1011.3 hPa | 0 mm | - | 111 W/m² | - |
| 1777131939 | 15.56° C | 54% | 1011.1 hPa | 0 mm | - | 162 W/m² | - |
| 1777131820 | 15.56° C | 55% | 1011.1 hPa | 0 mm | - | 137 W/m² | - |
| 1777131700 | 15.56° C | 54% | 1011 hPa | 0 mm | - | 118 W/m² | - |
| 1777131580 | 15.56° C | 54% | 1011.1 hPa | 0 mm | - | 188 W/m² | - |
| 1777131461 | 15.56° C | 54% | 1011.2 hPa | 0 mm | - | 311 W/m² | - |
| 1777131341 | 16.11° C | 54% | 1011 hPa | 0 mm | - | 269 W/m² | - |
| 1777131221 | 16.11° C | 53% | 1010.9 hPa | 0 mm | - | 323 W/m² | - |
* Rain latest hour (hover to see other rain measurements)
** Current wind speed in m/s (hover to see current wind gust speed)